Location: Bothwell
(41.7170°N, 112.2589°W)
Time: 01:26:33
(UTC+00:00)

STARLINK-37268 - Pass Details

Date: 19 April 2026
Orbit: 259 x 260 km, 97.3° (Epoch: 18 April)

Event Time Altitude Azimuth Distance (km) Brightness Sun altitude
Rises 04:03:42 0° 13° (NNE) 1,888 5.7 -19.3°
Reaches altitude 10° 04:05:31 10° 14° (NNE) 1,074 4.4 -19.6°
Enters shadow 04:05:33 10° 14° (NNE) 1,058 4.3 -19.6°
